1574982020,2019-11-29 00:00,53.85,971.56,0.00,1000.48,21.47,0.00,240,0.1
1574982080,2019-11-29 00:01,53.85,971.59,0.00,1000.51,21.48,0.00,240,0.1
1574982140,2019-11-29 00:02,53.70,971.58,0.00,1000.50,21.53,0.00,240,0.1
1574982200,2019-11-29 00:03,53.77,971.59,0.00,1000.51,21.51,0.00,240,0.1
1574982260,2019-11-29 00:04,53.73,971.59,0.00,1000.50,21.50,0.00,240,0.1
1574982320,2019-11-29 00:05,53.78,971.59,0.00,1000.50,21.50,0.00,240,0.1
1574982381,2019-11-29 00:06,53.76,971.61,0.00,1000.53,21.49,0.00,240,0.1
1574982441,2019-11-29 00:07,53.73,971.64,0.00,1000.56,21.50,0.00,240,0.1
1574982501,2019-11-29 00:08,53.54,971.64,0.00,1000.55,21.50,0.00,240,0.1
1574982561,2019-11-29 00:09,53.80,971.66,0.00,1000.57,21.48,0.00,240,0.1
1574982621,2019-11-29 00:10,54.01,971.62,0.00,1000.54,21.48,0.00,240,0.1
1574982682,2019-11-29 00:11,54.16,971.65,0.00,1000.57,21.48,0.00,240,0.1
1574982742,2019-11-29 00:12,53.71,971.67,0.00,1000.58,21.50,0.00,240,0.1
1574982802,2019-11-29 00:13,53.74,971.64,0.00,1000.56,21.48,0.00,240,0.1
1574982862,2019-11-29 00:14,53.76,971.63,0.00,1000.54,21.46,0.00,240,0.1
1574982922,2019-11-29 00:15,53.77,971.65,0.00,1000.56,21.46,0.00,240,0.1
1574982982,2019-11-29 00:16,53.79,971.61,0.00,1000.53,21.46,0.00,240,0.1
1574983042,2019-11-29 00:17,53.72,971.64,0.00,1000.56,21.49,0.00,240,0.1
1574983102,2019-11-29 00:18,53.77,971.65,0.00,1000.56,21.46,0.00,240,0.1
1574983162,2019-11-29 00:19,53.71,971.64,0.00,1000.56,21.47,0.00,240,0.1
1574983222,2019-11-29 00:20,53.71,971.65,0.00,1000.56,21.48,0.00,240,0.1
1574983282,2019-11-29 00:21,53.71,971.67,0.00,1000.59,21.49,0.00,240,0.1
1574983343,2019-11-29 00:22,53.74,971.67,0.00,1000.58,21.47,0.00,240,0.1
1574983403,2019-11-29 00:23,53.75,971.65,0.00,1000.57,21.45,0.00,240,0.1
1574983463,2019-11-29 00:24,53.77,971.68,0.00,1000.60,21.45,0.00,240,0.1
1574983523,2019-11-29 00:25,53.75,971.68,0.00,1000.60,21.46,0.00,240,0.1
1574983583,2019-11-29 00:26,53.70,971.72,0.00,1000.64,21.46,0.00,240,0.1
1574983643,2019-11-29 00:27,53.68,971.74,0.00,1000.66,21.47,0.00,240,0.1
1574983703,2019-11-29 00:28,53.96,971.76,0.00,1000.67,21.46,0.00,240,0.1
1574983764,2019-11-29 00:29,53.64,971.79,0.00,1000.70,21.49,0.00,240,0.1
1574983824,2019-11-29 00:30,53.76,971.76,0.00,1000.68,21.45,0.00,240,0.1
1574983884,2019-11-29 00:31,53.72,971.75,0.00,1000.67,21.45,0.00,240,0.1
1574983944,2019-11-29 00:32,53.71,971.77,0.00,1000.68,21.46,0.00,240,0.1
1574984004,2019-11-29 00:33,53.74,971.78,0.00,1000.69,21.43,0.00,240,0.1
1574984064,2019-11-29 00:34,53.64,971.75,0.00,1000.67,21.46,0.00,240,0.1
1574984124,2019-11-29 00:35,53.74,971.78,0.00,1000.70,21.45,0.00,240,0.1
1574984185,2019-11-29 00:36,53.64,971.74,0.00,1000.66,21.45,0.00,240,0.1
1574984245,2019-11-29 00:37,53.64,971.80,0.00,1000.71,21.46,0.00,240,0.1
1574984305,2019-11-29 00:38,53.63,971.76,0.00,1000.68,21.47,0.00,240,0.1
1574984365,2019-11-29 00:39,53.61,971.76,0.00,1000.68,21.46,0.00,240,0.1
1574984425,2019-11-29 00:40,53.63,971.74,0.00,1000.65,21.44,0.00,240,0.1
1574984485,2019-11-29 00:41,53.61,971.74,0.00,1000.65,21.46,0.00,240,0.1
1574984546,2019-11-29 00:42,53.57,971.74,0.00,1000.65,21.45,0.00,240,0.1
1574984606,2019-11-29 00:43,53.59,971.75,0.00,1000.67,21.46,0.00,240,0.1
1574984666,2019-11-29 00:44,53.33,971.76,0.00,1000.68,21.46,0.00,240,0.1
1574984726,2019-11-29 00:45,53.68,971.75,0.00,1000.67,21.43,0.00,240,0.1
1574984786,2019-11-29 00:46,53.44,971.72,0.00,1000.63,21.42,0.00,240,0.1
1574984846,2019-11-29 00:47,53.62,971.74,0.00,1000.65,21.46,0.00,240,0.1
1574984906,2019-11-29 00:48,53.65,971.72,0.00,1000.64,21.44,0.00,240,0.1
1574984966,2019-11-29 00:49,53.96,971.70,0.00,1000.62,21.44,0.00,240,0.1
1574985027,2019-11-29 00:50,53.54,971.72,0.00,1000.64,21.44,0.00,240,0.1
1574985087,2019-11-29 00:51,53.57,971.71,0.00,1000.62,21.43,0.00,240,0.1
1574985147,2019-11-29 00:52,53.30,971.70,0.00,1000.62,21.45,0.00,240,0.1
1574985207,2019-11-29 00:53,53.56,971.68,0.00,1000.60,21.42,0.00,240,0.1
1574985268,2019-11-29 00:54,53.46,971.69,0.00,1000.61,21.44,0.00,240,0.1
1574985328,2019-11-29 00:55,53.44,971.69,0.00,1000.61,21.44,0.00,240,0.1
1574985388,2019-11-29 00:56,53.52,971.70,0.00,1000.62,21.41,0.00,240,0.1
1574985448,2019-11-29 00:57,53.49,971.72,0.00,1000.64,21.43,0.00,240,0.1
1574985508,2019-11-29 00:58,53.56,971.68,0.00,1000.60,21.42,0.00,240,0.1
1574985568,2019-11-29 00:59,53.52,971.68,0.00,1000.60,21.41,0.00,240,0.1
1574985628,2019-11-29 01:00,53.45,971.71,0.00,1000.62,21.43,0.00,240,0.1
1574985689,2019-11-29 01:01,53.48,971.68,0.00,1000.59,21.43,0.00,240,0.1
1574985749,2019-11-29 01:02,53.47,971.67,0.00,1000.58,21.43,0.00,240,0.1
1574985809,2019-11-29 01:03,53.46,971.68,0.00,1000.60,21.43,0.00,240,0.1
1574985869,2019-11-29 01:04,53.51,971.74,0.00,1000.66,21.40,0.00,240,0.1
1574985929,2019-11-29 01:05,53.46,971.72,0.00,1000.63,21.41,0.00,240,0.1
1574985989,2019-11-29 01:06,53.52,971.73,0.00,1000.64,21.38,0.00,240,0.1
1574986050,2019-11-29 01:07,53.88,971.74,0.00,1000.66,21.39,0.00,240,0.1
1574986110,2019-11-29 01:08,53.52,971.77,0.00,1000.68,21.39,0.00,240,0.1
1574986170,2019-11-29 01:09,53.50,971.75,0.00,1000.67,21.39,0.00,240,0.1
1574986230,2019-11-29 01:10,53.44,971.74,0.00,1000.66,21.43,0.00,240,0.1
1574986290,2019-11-29 01:11,53.48,971.73,0.00,1000.64,21.39,0.00,240,0.1
1574986350,2019-11-29 01:12,53.49,971.70,0.00,1000.61,21.39,0.00,240,0.1
1574986410,2019-11-29 01:13,53.46,971.72,0.00,1000.63,21.40,0.00,240,0.1
1574986470,2019-11-29 01:14,53.52,971.68,0.00,1000.59,21.38,0.00,240,0.1
1574986530,2019-11-29 01:15,53.26,971.67,0.00,1000.58,21.40,0.00,240,0.1
1574986591,2019-11-29 01:16,53.46,971.67,0.00,1000.59,21.39,0.00,240,0.1
1574986651,2019-11-29 01:17,53.46,971.66,0.00,1000.58,21.39,0.00,240,0.1
1574986711,2019-11-29 01:18,53.48,971.69,0.00,1000.61,21.39,0.00,240,0.1
1574986771,2019-11-29 01:19,53.48,971.69,0.00,1000.60,21.39,0.00,240,0.1
1574986831,2019-11-29 01:20,53.48,971.69,0.00,1000.60,21.38,0.00,240,0.1
1574986891,2019-11-29 01:21,53.47,971.69,0.00,1000.61,21.39,0.00,240,0.1
1574986951,2019-11-29 01:22,53.47,971.68,0.00,1000.60,21.38,0.00,240,0.1
1574987011,2019-11-29 01:23,53.46,971.71,0.00,1000.62,21.37,0.00,240,0.1
1574987071,2019-11-29 01:24,53.43,971.73,0.00,1000.64,21.39,0.00,240,0.1
1574987131,2019-11-29 01:25,53.43,971.71,0.00,1000.63,21.38,0.00,240,0.1
1574987191,2019-11-29 01:26,53.43,971.71,0.00,1000.63,21.38,0.00,240,0.1
1574987251,2019-11-29 01:27,53.73,971.73,0.00,1000.64,21.38,0.00,240,0.1
1574987311,2019-11-29 01:28,53.47,971.72,0.00,1000.63,21.38,0.00,240,0.1
1574987372,2019-11-29 01:29,53.25,971.73,0.00,1000.64,21.40,0.00,240,0.1
1574987432,2019-11-29 01:30,53.41,971.70,0.00,1000.62,21.39,0.00,240,0.1
1574987492,2019-11-29 01:31,53.44,971.70,0.00,1000.61,21.37,0.00,240,0.1
1574987552,2019-11-29 01:32,53.06,971.75,0.00,1000.66,21.39,0.00,240,0.1
1574987612,2019-11-29 01:33,53.41,971.75,0.00,1000.66,21.38,0.00,240,0.1
1574987672,2019-11-29 01:34,53.45,971.76,0.00,1000.67,21.35,0.00,240,0.1
1574987732,2019-11-29 01:35,53.64,971.76,0.00,1000.67,21.35,0.00,240,0.1
1574987792,2019-11-29 01:36,53.42,971.73,0.00,1000.64,21.37,0.00,240,0.1
1574987852,2019-11-29 01:37,53.44,971.76,0.00,1000.67,21.35,0.00,240,0.1
1574987913,2019-11-29 01:38,53.37,971.75,0.00,1000.67,21.38,0.00,240,0.1
1574987973,2019-11-29 01:39,53.38,971.75,0.00,1000.66,21.39,0.00,240,0.1
1574988033,2019-11-29 01:40,53.25,971.75,0.00,1000.66,21.37,0.00,240,0.1
1574988093,2019-11-29 01:41,53.40,971.76,0.00,1000.68,21.38,0.00,240,0.1
1574988153,2019-11-29 01:42,53.40,971.73,0.00,1000.65,21.38,0.00,240,0.1
1574988213,2019-11-29 01:43,53.34,971.77,0.00,1000.69,21.39,0.00,240,0.1
1574988274,2019-11-29 01:44,53.36,971.73,0.00,1000.65,21.39,0.00,240,0.1
1574988334,2019-11-29 01:45,53.43,971.69,0.00,1000.60,21.38,0.00,240,0.1
1574988394,2019-11-29 01:46,53.76,971.71,0.00,1000.62,21.37,0.00,240,0.1
1574988454,2019-11-29 01:47,53.15,971.67,0.00,1000.59,21.36,0.00,240,0.1
1574988514,2019-11-29 01:48,53.43,971.70,0.00,1000.62,21.36,0.00,240,0.1
1574988575,2019-11-29 01:49,53.44,971.69,0.00,1000.60,21.36,0.00,240,0.1
1574988635,2019-11-29 01:50,53.41,971.66,0.00,1000.58,21.37,0.00,240,0.1
1574988695,2019-11-29 01:51,53.44,971.65,0.00,1000.56,21.36,0.00,240,0.1
1574988755,2019-11-29 01:52,52.92,971.65,0.00,1000.57,21.37,0.00,240,0.1
1574988815,2019-11-29 01:53,53.39,971.66,0.00,1000.58,21.38,0.00,240,0.1
1574988875,2019-11-29 01:54,53.38,971.68,0.00,1000.59,21.36,0.00,240,0.1
1574988935,2019-11-29 01:55,53.36,971.70,0.00,1000.61,21.38,0.00,240,0.1
1574988995,2019-11-29 01:56,53.00,971.70,0.00,1000.61,21.38,0.00,240,0.1
1574989056,2019-11-29 01:57,53.33,971.70,0.00,1000.62,21.37,0.00,240,0.1
1574989116,2019-11-29 01:58,53.34,971.72,0.00,1000.64,21.36,0.00,240,0.1
1574989176,2019-11-29 01:59,53.55,971.71,0.00,1000.62,21.37,0.00,240,0.1
1574989236,2019-11-29 02:00,53.30,971.68,0.00,1000.59,21.38,0.00,240,0.1
1574989296,2019-11-29 02:01,53.73,971.71,0.00,1000.63,21.35,0.00,240,0.1
1574989356,2019-11-29 02:02,53.33,971.75,0.00,1000.66,21.37,0.00,240,0.1
1574989416,2019-11-29 02:03,53.26,971.73,0.00,1000.64,21.38,0.00,240,0.1
1574989476,2019-11-29 02:04,53.52,971.73,0.00,1000.65,21.36,0.00,240,0.1
1574989537,2019-11-29 02:05,53.36,971.74,0.00,1000.66,21.37,0.00,240,0.1
1574989597,2019-11-29 02:06,53.31,971.76,0.00,1000.68,21.36,0.00,240,0.1
1574989657,2019-11-29 02:07,53.29,971.79,0.00,1000.70,21.36,0.00,240,0.1
1574989717,2019-11-29 02:08,53.32,971.78,0.00,1000.69,21.36,0.00,240,0.1
1574989778,2019-11-29 02:09,53.29,971.79,0.00,1000.71,21.37,0.00,240,0.1
1574989838,2019-11-29 02:10,53.36,971.77,0.00,1000.69,21.34,0.00,240,0.1
1574989898,2019-11-29 02:11,53.53,971.80,0.00,1000.71,21.36,0.00,240,0.1
1574989958,2019-11-29 02:12,53.29,971.85,0.00,1000.76,21.36,0.00,240,0.1
1574990018,2019-11-29 02:13,53.27,971.87,0.00,1000.78,21.36,0.00,240,0.1
1574990078,2019-11-29 02:14,53.03,971.85,0.00,1000.76,21.37,0.00,240,0.1
1574990138,2019-11-29 02:15,53.31,971.83,0.00,1000.74,21.37,0.00,240,0.1
1574990198,2019-11-29 02:16,53.24,971.84,0.00,1000.76,21.38,0.00,240,0.1
1574990258,2019-11-29 02:17,53.15,971.78,0.00,1000.69,21.37,0.00,240,0.1
1574990319,2019-11-29 02:18,53.21,971.80,0.00,1000.71,21.39,0.00,240,0.1
1574990379,2019-11-29 02:19,53.21,971.78,0.00,1000.70,21.37,0.00,240,0.1
1574990439,2019-11-29 02:20,53.24,971.77,0.00,1000.68,21.35,0.00,240,0.1
1574990499,2019-11-29 02:21,53.28,971.75,0.00,1000.66,21.34,0.00,240,0.1
1574990560,2019-11-29 02:22,53.30,971.77,0.00,1000.69,21.34,0.00,240,0.1
1574990620,2019-11-29 02:23,53.28,971.74,0.00,1000.65,21.34,0.00,240,0.1
1574990680,2019-11-29 02:24,53.33,971.74,0.00,1000.65,21.32,0.00,240,0.1
1574990740,2019-11-29 02:25,53.27,971.77,0.00,1000.69,21.34,0.00,240,0.1
1574990800,2019-11-29 02:26,53.22,971.78,0.00,1000.69,21.36,0.00,240,0.1
1574990860,2019-11-29 02:27,53.24,971.75,0.00,1000.67,21.35,0.00,240,0.1
1574990920,2019-11-29 02:28,53.23,971.74,0.00,1000.66,21.36,0.00,240,0.1
1574990980,2019-11-29 02:29,53.22,971.76,0.00,1000.67,21.34,0.00,240,0.1
1574991041,2019-11-29 02:30,53.26,971.73,0.00,1000.65,21.35,0.00,240,0.1
1574991101,2019-11-29 02:31,53.23,971.75,0.00,1000.67,21.34,0.00,240,0.1
1574991161,2019-11-29 02:32,53.30,971.71,0.00,1000.62,21.32,0.00,240,0.1
1574991221,2019-11-29 02:33,53.17,971.72,0.00,1000.63,21.34,0.00,240,0.1
1574991281,2019-11-29 02:34,53.20,971.68,0.00,1000.60,21.34,0.00,240,0.1
1574991342,2019-11-29 02:35,53.21,971.71,0.00,1000.63,21.34,0.00,240,0.1
1574991402,2019-11-29 02:36,53.08,971.67,0.00,1000.58,21.34,0.00,240,0.1
1574991462,2019-11-29 02:37,53.16,971.70,0.00,1000.61,21.35,0.00,240,0.1
1574991522,2019-11-29 02:38,53.14,971.68,0.00,1000.59,21.35,0.00,240,0.1
1574991582,2019-11-29 02:39,52.71,971.66,0.00,1000.57,21.35,0.00,240,0.1
1574991642,2019-11-29 02:40,53.18,971.66,0.00,1000.58,21.34,0.00,240,0.1
1574991703,2019-11-29 02:41,53.20,971.68,0.00,1000.60,21.33,0.00,240,0.1
1574991763,2019-11-29 02:42,53.18,971.68,0.00,1000.59,21.32,0.00,240,0.1
1574991823,2019-11-29 02:43,52.74,971.68,0.00,1000.59,21.33,0.00,240,0.1
1574991883,2019-11-29 02:44,53.26,971.69,0.00,1000.61,21.30,0.00,240,0.1
1574991943,2019-11-29 02:45,53.19,971.68,0.00,1000.60,21.31,0.00,240,0.1
1574992004,2019-11-29 02:46,53.20,971.69,0.00,1000.61,21.31,0.00,240,0.1
1574992064,2019-11-29 02:47,53.17,971.69,0.00,1000.60,21.34,0.00,240,0.1
1574992124,2019-11-29 02:48,53.17,971.67,0.00,1000.58,21.33,0.00,240,0.1
1574992184,2019-11-29 02:49,53.13,971.68,0.00,1000.59,21.34,0.00,240,0.1
1574992244,2019-11-29 02:50,53.19,971.66,0.00,1000.58,21.31,0.00,240,0.1
1574992304,2019-11-29 02:51,53.16,971.70,0.00,1000.61,21.32,0.00,240,0.1
1574992365,2019-11-29 02:52,53.15,971.71,0.00,1000.62,21.31,0.00,240,0.1
1574992425,2019-11-29 02:53,53.11,971.71,0.00,1000.62,21.33,0.00,240,0.1
1574992485,2019-11-29 02:54,53.13,971.70,0.00,1000.61,21.32,0.00,240,0.1
1574992546,2019-11-29 02:55,53.11,971.71,0.00,1000.62,21.31,0.00,240,0.1
1574992606,2019-11-29 02:56,53.04,971.70,0.00,1000.62,21.32,0.00,240,0.1
1574992666,2019-11-29 02:57,53.09,971.66,0.00,1000.58,21.32,0.00,240,0.1
1574992726,2019-11-29 02:58,53.06,971.67,0.00,1000.58,21.32,0.00,240,0.1
1574992786,2019-11-29 02:59,53.11,971.66,0.00,1000.57,21.31,0.00,240,0.1
1574992846,2019-11-29 03:00,53.11,971.65,0.00,1000.56,21.31,0.00,240,0.1
1574992906,2019-11-29 03:01,53.14,971.65,0.00,1000.57,21.29,0.00,240,0.1
1574992966,2019-11-29 03:02,53.12,971.67,0.00,1000.59,21.30,0.00,240,0.1
1574993027,2019-11-29 03:03,53.08,971.67,0.00,1000.59,21.31,0.00,240,0.1
1574993087,2019-11-29 03:04,53.04,971.68,0.00,1000.60,21.33,0.00,240,0.1
1574993147,2019-11-29 03:05,53.01,971.72,0.00,1000.64,21.33,0.00,240,0.1
1574993207,2019-11-29 03:06,53.03,971.67,0.00,1000.59,21.32,0.00,240,0.1
1574993267,2019-11-29 03:07,53.04,971.66,0.00,1000.58,21.32,0.00,240,0.1
1574993328,2019-11-29 03:08,53.05,971.68,0.00,1000.59,21.31,0.00,240,0.1
1574993388,2019-11-29 03:09,53.08,971.66,0.00,1000.57,21.30,0.00,240,0.1
1574993448,2019-11-29 03:10,53.06,971.69,0.00,1000.61,21.31,0.00,240,0.1
1574993508,2019-11-29 03:11,53.20,971.74,0.00,1000.66,21.30,0.00,240,0.1
1574993568,2019-11-29 03:12,53.05,971.72,0.00,1000.63,21.31,0.00,240,0.1
1574993629,2019-11-29 03:13,53.04,971.69,0.00,1000.61,21.31,0.00,240,0.1
1574993689,2019-11-29 03:14,53.09,971.67,0.00,1000.59,21.30,0.00,240,0.1
1574993749,2019-11-29 03:15,53.08,971.66,0.00,1000.58,21.31,0.00,240,0.1
1574993809,2019-11-29 03:16,53.07,971.69,0.00,1000.61,21.30,0.00,240,0.1
1574993869,2019-11-29 03:17,53.08,971.66,0.00,1000.58,21.30,0.00,240,0.1
1574993929,2019-11-29 03:18,53.36,971.70,0.00,1000.61,21.29,0.00,240,0.1
1574993989,2019-11-29 03:19,53.08,971.66,0.00,1000.58,21.29,0.00,240,0.1
1574994049,2019-11-29 03:20,53.08,971.67,0.00,1000.59,21.29,0.00,240,0.1
1574994110,2019-11-29 03:21,52.97,971.70,0.00,1000.62,21.31,0.00,240,0.1
1574994170,2019-11-29 03:22,53.34,971.70,0.00,1000.61,21.29,0.00,240,0.1
1574994230,2019-11-29 03:23,53.09,971.70,0.00,1000.61,21.28,0.00,240,0.1
1574994290,2019-11-29 03:24,53.04,971.69,0.00,1000.61,21.30,0.00,240,0.1
1574994351,2019-11-29 03:25,53.01,971.66,0.00,1000.58,21.30,0.00,240,0.1
1574994411,2019-11-29 03:26,52.99,971.65,0.00,1000.56,21.30,0.00,240,0.1
1574994471,2019-11-29 03:27,53.04,971.67,0.00,1000.59,21.30,0.00,240,0.1
1574994531,2019-11-29 03:28,53.01,971.65,0.00,1000.56,21.30,0.00,240,0.1
1574994591,2019-11-29 03:29,53.06,971.64,0.00,1000.55,21.28,0.00,240,0.1
1574994651,2019-11-29 03:30,53.05,971.63,0.00,1000.54,21.28,0.00,240,0.1
1574994712,2019-11-29 03:31,52.91,971.56,0.00,1000.48,21.28,0.00,240,0.1
1574994772,2019-11-29 03:32,53.01,971.61,0.00,1000.52,21.29,0.00,240,0.1
1574994832,2019-11-29 03:33,53.00,971.57,0.00,1000.49,21.29,0.00,240,0.1
1574994892,2019-11-29 03:34,53.00,971.61,0.00,1000.53,21.29,0.00,240,0.1
1574994952,2019-11-29 03:35,53.28,971.62,0.00,1000.54,21.30,0.00,240,0.1
1574995012,2019-11-29 03:36,53.33,971.61,0.00,1000.52,21.29,0.00,240,0.1
1574995073,2019-11-29 03:37,52.95,971.57,0.00,1000.48,21.31,0.00,240,0.1
1574995133,2019-11-29 03:38,52.92,971.60,0.00,1000.52,21.30,0.00,240,0.1
1574995193,2019-11-29 03:39,52.91,971.60,0.00,1000.51,21.31,0.00,240,0.1
1574995253,2019-11-29 03:40,52.95,971.64,0.00,1000.55,21.30,0.00,240,0.1
1574995313,2019-11-29 03:41,52.95,971.61,0.00,1000.53,21.30,0.00,240,0.1
1574995373,2019-11-29 03:42,52.96,971.60,0.00,1000.52,21.29,0.00,240,0.1
1574995433,2019-11-29 03:43,52.88,971.66,0.00,1000.58,21.30,0.00,240,0.1
1574995494,2019-11-29 03:44,52.96,971.64,0.00,1000.56,21.29,0.00,240,0.1
1574995554,2019-11-29 03:45,52.89,971.60,0.00,1000.52,21.29,0.00,240,0.1
1574995614,2019-11-29 03:46,52.96,971.59,0.00,1000.51,21.28,0.00,240,0.1
1574995674,2019-11-29 03:47,52.91,971.56,0.00,1000.48,21.27,0.00,240,0.1
1574995734,2019-11-29 03:48,52.88,971.54,0.00,1000.46,21.27,0.00,240,0.1
1574995794,2019-11-29 03:49,52.91,971.51,0.00,1000.43,21.28,0.00,240,0.1
1574995855,2019-11-29 03:50,52.89,971.48,0.00,1000.40,21.28,0.00,240,0.1
1574995915,2019-11-29 03:51,52.94,971.49,0.00,1000.41,21.26,0.00,240,0.1
1574995975,2019-11-29 03:52,52.97,971.47,0.00,1000.39,21.27,0.00,240,0.1
1574996035,2019-11-29 03:53,52.91,971.46,0.00,1000.37,21.26,0.00,240,0.1
1574996096,2019-11-29 03:54,52.90,971.49,0.00,1000.40,21.27,0.00,240,0.1
1574996156,2019-11-29 03:55,52.91,971.48,0.00,1000.39,21.26,0.00,240,0.1
1574996216,2019-11-29 03:56,52.94,971.49,0.00,1000.41,21.25,0.00,240,0.1
1574996276,2019-11-29 03:57,52.91,971.49,0.00,1000.40,21.26,0.00,240,0.1
1574996336,2019-11-29 03:58,52.90,971.46,0.00,1000.38,21.27,0.00,240,0.1
1574996396,2019-11-29 03:59,52.80,971.43,0.00,1000.34,21.27,0.00,240,0.1
1574996456,2019-11-29 04:00,52.83,971.43,0.00,1000.34,21.28,0.00,240,0.1
1574996516,2019-11-29 04:01,52.87,971.40,0.00,1000.31,21.27,0.00,240,0.1
1574996576,2019-11-29 04:02,52.76,971.40,0.00,1000.31,21.26,0.00,240,0.1
1574996637,2019-11-29 04:03,52.69,971.36,0.00,1000.27,21.27,0.00,240,0.1
1574996697,2019-11-29 04:04,52.82,971.36,0.00,1000.27,21.28,0.00,240,0.1
1574996757,2019-11-29 04:05,52.80,971.34,0.00,1000.26,21.28,0.00,240,0.1
1574996817,2019-11-29 04:06,52.82,971.35,0.00,1000.27,21.27,0.00,240,0.1
1574996877,2019-11-29 04:07,53.00,971.32,0.00,1000.24,21.27,0.00,240,0.1
1574996938,2019-11-29 04:08,52.84,971.32,0.00,1000.24,21.25,0.00,240,0.1
1574996998,2019-11-29 04:09,53.10,971.33,0.00,1000.24,21.26,0.00,240,0.1
1574997058,2019-11-29 04:10,52.77,971.34,0.00,1000.26,21.26,0.00,240,0.1
1574997118,2019-11-29 04:11,52.80,971.34,0.00,1000.26,21.25,0.00,240,0.1
1574997179,2019-11-29 04:12,52.76,971.39,0.00,1000.31,21.25,0.00,240,0.1
1574997239,2019-11-29 04:13,52.74,971.36,0.00,1000.27,21.25,0.00,240,0.1
1574997299,2019-11-29 04:14,52.76,971.36,0.00,1000.28,21.26,0.00,240,0.1
1574997359,2019-11-29 04:15,52.79,971.40,0.00,1000.32,21.24,0.00,240,0.1
1574997419,2019-11-29 04:16,52.79,971.40,0.00,1000.32,21.24,0.00,240,0.1
1574997479,2019-11-29 04:17,52.80,971.43,0.00,1000.35,21.23,0.00,240,0.1
1574997539,2019-11-29 04:18,53.22,971.39,0.00,1000.31,21.23,0.00,240,0.1
1574997600,2019-11-29 04:20,52.82,971.41,0.00,1000.32,21.24,0.00,240,0.1
1574997660,2019-11-29 04:21,52.74,971.41,0.00,1000.33,21.25,0.00,240,0.1
1574997720,2019-11-29 04:22,52.78,971.45,0.00,1000.37,21.24,0.00,240,0.1
1574997780,2019-11-29 04:23,52.80,971.41,0.00,1000.32,21.23,0.00,240,0.1
1574997840,2019-11-29 04:24,52.74,971.42,0.00,1000.34,21.23,0.00,240,0.1
1574997900,2019-11-29 04:25,52.78,971.44,0.00,1000.35,21.23,0.00,240,0.1
1574997960,2019-11-29 04:26,52.73,971.47,0.00,1000.38,21.24,0.00,240,0.1
1574998021,2019-11-29 04:27,52.79,971.46,0.00,1000.37,21.22,0.00,240,0.1
1574998081,2019-11-29 04:28,52.68,971.49,0.00,1000.40,21.23,0.00,240,0.1
1574998141,2019-11-29 04:29,52.78,971.50,0.00,1000.41,21.21,0.00,240,0.1
1574998201,2019-11-29 04:30,52.65,971.51,0.00,1000.42,21.24,0.00,240,0.1
1574998261,2019-11-29 04:31,52.65,971.52,0.00,1000.43,21.26,0.00,240,0.1
1574998321,2019-11-29 04:32,52.62,971.51,0.00,1000.43,21.25,0.00,240,0.1
1574998381,2019-11-29 04:33,52.64,971.50,0.00,1000.41,21.25,0.00,240,0.1
1574998441,2019-11-29 04:34,52.65,971.52,0.00,1000.44,21.24,0.00,240,0.1
1574998502,2019-11-29 04:35,52.71,971.51,0.00,1000.42,21.22,0.00,240,0.1
1574998562,2019-11-29 04:36,52.55,971.55,0.00,1000.46,21.24,0.00,240,0.1
1574998622,2019-11-29 04:37,52.66,971.52,0.00,1000.44,21.23,0.00,240,0.1
1574998682,2019-11-29 04:38,52.59,971.54,0.00,1000.46,21.23,0.00,240,0.1
1574998742,2019-11-29 04:39,52.65,971.50,0.00,1000.42,21.23,0.00,240,0.1
1574998802,2019-11-29 04:40,52.62,971.50,0.00,1000.42,21.22,0.00,240,0.1
1574998862,2019-11-29 04:41,52.63,971.50,0.00,1000.41,21.23,0.00,240,0.1
1574998922,2019-11-29 04:42,52.61,971.52,0.00,1000.43,21.21,0.00,240,0.1
1574998983,2019-11-29 04:43,53.09,971.53,0.00,1000.44,21.21,0.00,240,0.1
1574999043,2019-11-29 04:44,52.66,971.52,0.00,1000.44,21.19,0.00,240,0.1
1574999103,2019-11-29 04:45,52.65,971.56,0.00,1000.48,21.19,0.00,240,0.1
1574999163,2019-11-29 04:46,52.92,971.50,0.00,1000.42,21.23,0.00,240,0.1
1574999223,2019-11-29 04:47,52.54,971.53,0.00,1000.44,21.22,0.00,240,0.1
1574999284,2019-11-29 04:48,52.60,971.57,0.00,1000.49,21.21,0.00,240,0.1
1574999344,2019-11-29 04:49,52.58,971.59,0.00,1000.50,21.21,0.00,240,0.1
1574999404,2019-11-29 04:50,52.60,971.61,0.00,1000.52,21.22,0.00,240,0.1
1574999464,2019-11-29 04:51,52.92,971.58,0.00,1000.50,21.23,0.00,240,0.1
1574999524,2019-11-29 04:52,52.54,971.59,0.00,1000.50,21.22,0.00,240,0.1
1574999584,2019-11-29 04:53,52.60,971.58,0.00,1000.50,21.20,0.00,240,0.1
1574999645,2019-11-29 04:54,52.47,971.54,0.00,1000.46,21.23,0.00,240,0.1
1574999705,2019-11-29 04:55,52.60,971.54,0.00,1000.46,21.20,0.00,240,0.1
1574999765,2019-11-29 04:56,52.58,971.57,0.00,1000.49,21.19,0.00,240,0.1
1574999825,2019-11-29 04:57,52.53,971.61,0.00,1000.52,21.19,0.00,240,0.1
1574999885,2019-11-29 04:58,52.57,971.58,0.00,1000.49,21.18,0.00,240,0.1
1574999946,2019-11-29 04:59,52.56,971.60,0.00,1000.52,21.21,0.00,240,0.1
1575000006,2019-11-29 05:00,52.60,971.59,0.00,1000.51,21.19,0.00,240,0.1
1575000066,2019-11-29 05:01,52.47,971.59,0.00,1000.51,21.21,0.00,240,0.1
1575000126,2019-11-29 05:02,52.84,971.57,0.00,1000.48,21.20,0.00,240,0.1
1575000186,2019-11-29 05:03,52.49,971.59,0.00,1000.51,21.18,0.00,240,0.1
1575000246,2019-11-29 05:04,52.51,971.56,0.00,1000.48,21.19,0.00,240,0.1
1575000306,2019-11-29 05:05,52.54,971.59,0.00,1000.50,21.19,0.00,240,0.1
1575000366,2019-11-29 05:06,52.51,971.53,0.00,1000.45,21.18,0.00,240,0.1
1575000427,2019-11-29 05:07,52.46,971.57,0.00,1000.48,21.19,0.00,240,0.1
1575000487,2019-11-29 05:08,52.40,971.54,0.00,1000.46,21.19,0.00,240,0.1
1575000547,2019-11-29 05:09,52.44,971.60,0.00,1000.51,21.19,0.00,240,0.1
1575000607,2019-11-29 05:10,52.45,971.54,0.00,1000.46,21.20,0.00,240,0.1
1575000667,2019-11-29 05:11,52.33,971.58,0.00,1000.50,21.22,0.00,240,0.1
1575000727,2019-11-29 05:12,52.30,971.56,0.00,1000.48,21.20,0.00,240,0.1
1575000788,2019-11-29 05:13,52.38,971.56,0.00,1000.47,21.20,0.00,240,0.1
1575000848,2019-11-29 05:14,52.25,971.57,0.00,1000.48,21.22,0.00,240,0.1
1575000908,2019-11-29 05:15,52.40,971.53,0.00,1000.45,21.18,0.00,240,0.1
1575000968,2019-11-29 05:16,52.40,971.52,0.00,1000.44,21.19,0.00,240,0.1
1575001028,2019-11-29 05:17,52.63,971.54,0.00,1000.45,21.18,0.00,240,0.1
1575001088,2019-11-29 05:18,52.42,971.55,0.00,1000.46,21.17,0.00,240,0.1
1575001149,2019-11-29 05:19,52.40,971.54,0.00,1000.46,21.17,0.00,240,0.1
1575001209,2019-11-29 05:20,52.38,971.50,0.00,1000.41,21.18,0.00,240,0.1
1575001269,2019-11-29 05:21,52.39,971.50,0.00,1000.41,21.17,0.00,240,0.1
1575001329,2019-11-29 05:22,52.39,971.49,0.00,1000.41,21.18,0.00,240,0.1
1575001389,2019-11-29 05:23,52.74,971.51,0.00,1000.43,21.15,0.00,240,0.1
1575001449,2019-11-29 05:24,52.33,971.51,0.00,1000.43,21.18,0.00,240,0.1
1575001509,2019-11-29 05:25,52.32,971.54,0.00,1000.45,21.19,0.00,240,0.1
1575001569,2019-11-29 05:26,52.35,971.55,0.00,1000.46,21.18,0.00,240,0.1
1575001630,2019-11-29 05:27,52.42,971.58,0.00,1000.50,21.15,0.00,240,0.1
1575001690,2019-11-29 05:28,52.35,971.52,0.00,1000.44,21.15,0.00,240,0.1